SCP
0 0 0 0 0 0 0 0 0 -0 0 0 0 0 0 0 0 0 0 0 0 0 0 0 0 -0 -0 -0 -0 -0 0 0 0 0 0 0 0 0 0 0 0 0 0 0
0 0 0 0 0 0 0 0 0 -0 -0 0 0 0 0 0 0 0 0 0 0 0 0 0 0 0 -0 -0 -0 -0 0 0 0 0 0 0 0 0 0 0 0 0 0 0
0 0 0 0 0 0 0 0 0 0 0 0 0 0 0 0 0 0 0 0 0 0 0 0 0 0 0 0 0 0 0 -0 -0 0 0 0 0 0 0 0 0 0 0 0
0 0 0 0 0 0 0 0 0 0 0 0 0 0 0 0 0 0 0 0 0 0 0 0 0 0 0 0 0 0 -0 -0 -0 -0 -0 0 0 0 0 0 0 0 0 0
0 0 0 0 0 0 0 0 0 0 0 0 0 0 0 0 0 0 0 0 0 0 0 0 0 0 0 0 0 0 0 0 0 0 0 0 0 0 0 0 0 0 0 0
0 0 0 0 0 0 0 0 0 0 0 0 0 0 0 0 0 0 0 0 0 0 0 0 0 0 0 0 0 0 0 0 0 0 0 0 0 0 0 0 0 0 0 0
0 0 0 0 0 0 0 0 0 0 0 0 0 0 0 0 0 0 0 0 0 0 0 0 0 0 0 0 0 0 0 0 0 0 0 0 0 0 0 0 0 0 0 0
0 0 0 0 0 0 0 0 0 0 0 0 0 0 0 0 0 0 0 0 0 0 0 0 0 0 0 0 0 0 0 0 0 0 0 0 0 0 0 0 0 0 0 -0
0 0 0 0 0 0 0 0 0 0 0 0 0 0 0 0 0 0 0 0 0 0 0 0 0 0 0 0 0 0 0 0 0 0 0 0 0 0 0 0 0 -0 0 0
0 0 0 0 0 0 0 0 0 0 0 0 0 0 0 0 0 0 0 0 0 0 0 0 0 0 0 0 0 0 0 0 0 0 0 0 0 0 0 0 0 0 -0 -0
0 0 0 0 0 0 0 0 0 0 0 0 0 0 0 0 0 0 -0 0 0 0 0 0 0 0 0 0 0 0 0 0 0 0 0 0 0 0 0 0 -0 -0 0 -0
0 0 0 0 0 0 0 0 0 0 0 0 0 0 0 0 0 0 -0 0 0 0 0 0 0 0 0 0 0 0 0 0 0 0 0 0 0 0 -0 -0 -0 -0 -0 -0
0 0 0 0 0 0 0 0 0 0 0 0 0 0 0 0 0 0 0 0 0 0 0 0 0 0 0 0 0 0 0 0 0 0 0 0 0 0 0 0 -0 0 0 0
0 0 0 0 0 0 0 0 0 0 0 0 0 0 0 0 0 0 0 0 0 0 0 0 0 0 0 0 0 0 0 0 0 0 0 0 0 0 0 0 0 0 0 0
0 0 0 0 0 0 0 0 0 0 0 0 0 0 0 0 0 0 0 0 0 0 0 0 0 0 0 0 0 0 0 0 0 0 0 0 0 0 0 0 0 0 0 0
0 0 0 0 0 0 0 0 0 0 0 0 0 -0 0 0 0 0 0 0 0 0 0 -0 -0 -0 -0 0 0 0 0 0 0 0 0 0 0 0 0 0 0 0 0 0
0 0 0 0 0 -0 0 0 0 0 0 -0 0 -0 0 0 0 0 0 0 0 -0 -0 -0 -0 0 0 0 0 0 0 0 0 0 0 0 0 0 0 0 0 0 0 0
-0 0 0 0 0 -0 0 0 0 0 0 0 0 0 0 0 0 0 0 0 0 0 0 0 0 0 0 0 0 0 0 0 0 0 0 0 0 0 0 0 0 0 0 0
-0 0 0 0 0 -0 -0 0 0 0 0 -0 0 0 0 0 0 0 0 0 0 0 0 0 0 0 0 0 0 0 0 0 0 0 0 0 0 0 0 0 0 0 0 0
-0 -0 0 -0 -0 -0 -0 -0 -0 -0 0 0 0 0 0 0 0 0 0 -0 0 0 0 0 0 0 0 0 0 0 0 0 0 0 0 0 0 0 0 0 0 0 0 0
-0 -0 -0 -0 -0 -0 -0 -0 -0 -0 0 0 0 0 0 0 0 0 0 0 0 0 0 0 0 0 0 0 0 0 0 0 0 0 0 0 0 0 0 0 0 0 0 0
-0 -0 -0 -0 -0 -0 -0 -0 -0 -0 -0 0 -0 -0 -0 0 0 0 0 0 0 0 0 0 0 0 0 0 0 0 0 0 0 0 0 0 0 0 0 0 0 0 0 0
-0 -0 -0 -0 -0 0 0 0 0 0 0 0 0 0 0 0 0 0 0 0 0 0 0 0 0 0 0 0 0 0 0 0 0 0 0 0 0 0 0 0 0 0 0 0
-0 -0 0 0 0 0 0 0 0 0 0 0 0 0 0 0 0 0 0 0 0 0 0 0 0 0 0 0 0 0 0 0 0 0 0 0 0 0 0 0 0 0 0 0
-0 -0 0 0 0 0 0 0 0 0 0 0 0 0 0 0 0 0 0 0 0 0 0 0 0 0 0 0 0 0 0 0 0 0 0 0 0 0 0 0 0 0 0 0
-0 -0 -0 0 0 0 0 0 0 0 0 0 0 0 0 0 0 0 0 0 0 0 0 0 0 0 0 0 0 0 0 0 0 0 0 0 0 0 0 0 0 0 0 0
-0 0 0 0 0 0 0 0 0 0 0 0 0 0 0 0 0 0 0 0 0 0 0 0 0 0 0 0 0 0 0 0 0 0 0 0 0 0 0 0 0 0 0 0
Wind_Speed_500mb
18 21 21 28 31 21 24 32 10 42 14 48 33 29 26 25 31 45 52 55 57 58 56 56 57 51 44 38 35 30 24 19 13 9 8 11 13 15 20 19 18 21 16 18
11 15 12 23 34 29 34 26 28 46 55 42 46 14 21 24 22 37 46 48 51 51 53 53 56 53 42 35 32 27 21 16 10 6 1 7 9 13 17 20 21 18 17 15
11 6 14 15 16 16 11 16 13 13 23 5 7 11 23 24 17 28 38 41 45 46 47 45 48 53 47 40 33 28 27 22 16 11 12 16 16 17 21 25 27 12 27 36
8 10 4 15 9 11 17 13 30 24 17 12 15 16 25 25 19 19 29 34 38 41 41 42 43 45 49 49 41 37 36 34 29 23 28 29 36 40 43 45 48 54 59 63
3 4 18 19 6 11 12 16 19 30 18 19 22 16 30 15 10 9 18 26 33 37 38 35 34 42 48 53 52 54 52 49 47 45 48 50 56 58 60 66 70 67 66 65
4 5 13 7 7 4 4 11 9 12 13 15 13 1 7 7 5 3 12 21 27 34 36 33 30 28 33 44 52 56 55 53 54 60 66 66 65 67 65 64 63 63 61 55
13 9 18 20 16 11 10 12 7 14 18 32 10 14 6 7 8 3 7 17 25 30 35 35 30 27 26 30 40 45 45 44 47 51 56 60 60 58 57 57 54 52 49 49
9 8 21 28 11 14 8 5 9 18 24 34 26 16 14 13 13 8 4 13 21 28 32 33 31 28 26 27 30 32 36 40 44 46 47 47 48 46 43 41 41 39 37 37
23 19 7 43 21 35 12 11 14 25 29 30 32 28 21 21 19 13 7 11 17 22 27 28 28 29 28 26 25 27 26 29 32 32 32 32 31 33 33 31 30 27 24 26
5 19 40 59 66 65 50 43 33 25 31 36 36 31 27 27 25 18 13 12 14 18 23 25 25 25 25 24 23 21 21 21 20 20 20 19 19 21 22 22 21 20 20 19
12 40 39 62 64 68 63 58 63 48 37 40 38 35 29 29 28 21 17 14 12 13 14 19 21 23 24 24 22 19 18 17 16 17 19 20 21 25 23 23 20 18 16 14
26 56 40 47 51 48 36 39 46 56 50 44 44 38 31 31 29 25 20 16 12 8 8 12 15 17 17 17 17 17 16 17 15 15 15 16 18 19 20 22 21 22 20 16
63 78 67 71 69 54 47 52 41 42 55 52 47 43 37 34 31 28 25 20 13 10 5 6 10 12 13 14 15 15 16 15 13 13 13 14 14 14 14 17 18 17 16 15
70 80 67 79 54 46 38 38 35 33 38 56 47 47 45 40 36 33 25 17 19 15 11 6 1 5 8 9 10 10 11 11 11 11 11 11 11 13 14 15 14 15 15 16
80 81 91 85 62 41 48 53 49 46 40 60 58 54 53 49 43 34 26 28 25 21 18 13 8 4 3 4 4 4 6 5 4 4 4 5 6 7 7 7 8 9 10 9
52 49 58 73 74 56 52 48 45 43 46 60 65 62 59 48 39 35 35 33 30 21 21 20 16 12 9 7 7 6 4 5 6 7 7 6 6 6 6 8 10 11 12 12
61 61 63 59 60 62 69 60 54 45 48 66 68 61 57 53 50 47 43 37 32 30 27 24 22 21 18 16 14 13 13 13 14 13 11 10 10 10 11 12 13 13 13 13
59 60 61 56 35 25 32 48 48 45 52 61 66 60 60 61 58 49 44 42 39 36 32 30 30 29 26 24 24 23 22 22 20 17 16 15 15 16 15 15 15 17 14 16
42 42 47 55 53 40 32 29 44 44 47 56 65 67 64 60 54 48 45 46 44 42 35 35 34 34 35 35 34 32 30 27 26 24 22 21 19 17 17 17 17 16 16 17
29 34 40 46 54 67 67 55 38 52 50 56 59 66 66 63 57 53 51 52 45 40 36 37 38 38 40 43 43 38 34 31 31 29 26 25 23 21 20 19 18 18 19 19
30 26 30 36 38 49 60 54 41 52 56 57 64 65 66 60 57 55 57 57 47 45 41 41 43 41 41 41 41 39 37 35 33 31 29 26 24 22 21 20 20 21 21 22
30 24 27 26 33 42 55 55 40 45 55 57 56 62 61 61 60 61 59 57 47 48 46 45 45 42 39 38 39 40 38 36 34 31 29 26 24 23 22 22 23 24 24 24
28 30 25 23 30 34 55 60 46 47 51 57 52 54 62 63 61 60 61 55 53 52 51 49 42 37 36 38 39 38 36 34 32 30 27 26 24 23 23 23 24 25 25 25
36 35 31 24 28 42 57 63 52 44 46 44 46 51 52 58 62 62 59 56 53 52 50 47 39 36 37 37 36 34 33 32 30 27 24 23 22 22 24 25 25 25 26 27
36 32 31 18 22 30 47 59 56 47 45 49 50 46 48 53 55 53 54 54 53 49 43 40 38 39 36 33 32 30 29 26 25 24 22 21 22 23 25 25 25 25 26 27
27 26 24 18 14 19 34 53 60 49 42 38 40 43 44 43 45 49 50 48 44 38 34 33 33 30 28 26 25 24 22 22 21 19 19 21 22 24 24 22 22 22 24 26
22 22 19 18 12 12 26 41 47 45 41 39 36 34 35 39 40 38 37 34 32 32 30 28 24 22 20 19 18 18 17 17 16 17 19 21 21 20 20 20 21 23 26 28
Wind_Direction_500mb
262 269 267 263 262 230 225 226 211 270 265 279 296 302 298 307 320 330 339 350 353 357 4 9 8 8 7 10 4 357 348 337 330 318 285 254 243 248 252 248 242 255 243 262
282 251 259 272 258 235 230 240 258 261 275 282 279 263 278 290 327 335 335 351 351 357 5 11 12 17 17 20 22 12 5 3 357 337 289 206 200 185 210 215 203 198 207 230
266 340 309 303 244 179 200 188 168 192 235 210 285 259 268 285 328 332 334 351 352 359 6 12 19 22 24 34 43 45 47 47 53 86 113 129 144 159 158 158 148 159 147 154
269 358 310 241 203 175 198 223 216 261 254 220 230 274 278 278 305 331 336 357 0 5 14 13 20 29 37 48 53 60 64 66 67 81 104 119 121 127 132 127 126 135 130 127
211 246 288 293 156 169 175 282 216 227 248 225 253 292 286 264 284 325 341 2 5 9 11 21 25 25 34 51 58 62 67 79 88 97 105 112 109 106 108 113 113 111 111 110
100 190 238 262 170 156 119 294 191 198 210 174 164 340 265 196 226 306 344 6 11 14 12 21 33 36 39 43 53 58 59 68 81 91 96 96 97 97 100 99 99 99 99 100
219 257 280 256 168 154 86 243 187 202 187 169 191 213 235 213 202 236 347 3 11 13 16 19 29 39 43 50 57 58 63 69 76 77 81 85 86 88 92 99 102 104 101 101
184 205 274 159 115 177 218 199 230 208 204 197 212 223 229 223 217 226 314 349 5 9 16 20 24 33 40 49 60 63 66 72 73 76 81 86 91 95 92 94 99 102 101 100
192 209 225 194 222 225 255 248 239 225 221 215 216 224 223 224 225 233 275 325 353 5 13 20 27 28 32 41 50 58 62 68 76 81 85 87 90 93 95 98 102 98 94 93
83 246 241 246 244 249 253 256 255 248 230 221 224 224 219 224 228 237 262 300 334 353 6 16 25 34 40 41 42 49 55 57 63 69 70 72 75 80 86 89 82 80 77 74
264 267 279 269 254 261 270 262 254 247 234 228 224 224 221 222 227 234 250 278 309 334 358 17 29 30 30 34 39 44 51 50 51 58 60 59 63 68 65 67 67 67 61 51
251 260 240 257 269 282 264 259 261 245 230 223 225 225 226 223 225 232 245 257 272 302 342 15 29 34 40 45 49 49 51 55 53 56 57 60 61 57 56 53 44 36 34 32
247 264 267 268 273 271 263 274 261 249 233 228 223 218 222 226 228 230 233 240 245 249 270 359 26 33 34 39 44 46 48 50 46 44 39 37 37 42 37 31 30 24 25 19
258 256 263 260 254 261 262 257 247 255 235 224 227 220 219 223 226 230 233 236 238 239 237 238 322 30 26 28 34 38 41 45 47 40 34 28 26 25 17 13 14 9 4 4
258 257 260 266 262 250 248 249 245 248 238 217 217 218 220 220 223 226 225 232 237 237 236 239 241 254 310 349 5 29 30 23 22 20 20 5 357 349 346 335 332 333 341 348
274 267 263 258 260 249 242 239 240 248 231 211 209 213 217 221 225 224 226 233 238 244 244 243 246 254 264 276 283 284 298 308 315 308 300 302 308 310 315 324 330 338 345 349
261 255 256 256 256 244 237 241 245 248 230 209 208 212 216 219 223 224 228 235 240 244 249 253 254 256 261 269 279 284 283 285 287 284 289 302 315 320 322 326 327 332 334 331
272 271 265 262 263 255 238 229 233 238 218 210 210 212 216 221 226 227 231 236 242 249 252 254 255 254 256 260 263 265 266 268 272 279 286 294 301 306 307 311 313 314 312 308
282 269 258 254 245 248 258 260 241 234 221 213 214 216 220 225 229 231 232 238 243 248 252 256 259 258 255 254 256 259 263 270 279 283 284 283 284 287 292 292 291 291 293 295
291 274 264 253 243 239 242 245 255 226 226 220 217 221 224 227 228 231 234 240 249 257 256 255 257 257 255 251 253 257 262 268 271 272 274 276 279 283 285 287 291 294 294 292
297 292 294 257 240 231 225 226 235 220 220 225 224 224 226 228 230 234 237 241 245 250 252 254 256 256 256 256 256 258 261 263 267 270 274 276 277 280 283 288 292 292 292 293
308 302 311 263 238 223 215 213 222 219 220 225 228 228 230 231 232 236 241 247 250 250 252 254 256 257 259 258 256 256 258 262 266 270 272 273 275 279 284 287 289 289 288 287
318 318 306 280 247 229 213 210 215 218 220 220 225 229 231 235 238 239 242 246 248 249 250 252 254 258 258 256 255 255 258 262 265 268 271 273 275 278 283 288 290 289 288 288
311 315 314 282 252 227 213 211 215 219 219 220 224 229 233 235 237 240 243 244 246 247 248 250 251 253 255 252 252 254 257 262 264 268 269 269 274 281 286 288 289 288 285 285
302 310 316 290 267 243 217 208 213 219 220 220 223 226 229 232 234 238 240 242 243 245 245 243 243 246 246 247 248 251 256 260 263 264 265 272 278 284 289 290 287 283 284 288
303 305 309 298 280 244 211 210 211 215 220 223 228 232 234 237 236 236 236 237 236 235 235 237 236 237 240 243 247 251 255 257 257 260 267 280 290 292 290 285 282 288 294 297
313 307 307 300 280 237 216 202 210 217 221 223 229 231 230 232 231 230 228 228 227 226 223 222 224 228 232 238 245 247 248 252 261 276 287 292 291 286 283 289 295 298 299 299
Wind_Speed_850mb
18 21 21 28 31 21 24 32 10 42 14 48 33 29 26 25 31 45 52 55 57 58 56 56 57 51 44 38 35 30 24 19 13 9 8 11 13 15 20 19 18 21 16 18
11 15 12 23 34 29 34 26 28 46 55 42 46 14 21 24 22 37 46 48 51 51 53 53 56 53 42 35 32 27 21 16 10 6 1 7 9 13 17 20 21 18 17 15
11 6 14 15 16 16 11 16 13 13 23 5 7 11 23 24 17 28 38 41 45 46 47 45 48 53 47 40 33 28 27 22 16 11 12 16 16 17 21 25 27 12 27 36
8 10 4 15 9 11 17 13 30 24 17 12 15 16 25 25 19 19 29 34 38 41 41 42 43 45 49 49 41 37 36 34 29 23 28 29 36 40 43 45 48 54 59 63
3 4 18 19 6 11 12 16 19 30 18 19 22 16 30 15 10 9 18 26 33 37 38 35 34 42 48 53 52 54 52 49 47 45 48 50 56 58 60 66 70 67 66 65
4 5 13 7 7 4 4 11 9 12 13 15 13 1 7 7 5 3 12 21 27 34 36 33 30 28 33 44 52 56 55 53 54 60 66 66 65 67 65 64 63 63 61 55
13 9 18 20 16 11 10 12 7 14 18 32 10 14 6 7 8 3 7 17 25 30 35 35 30 27 26 30 40 45 45 44 47 51 56 60 60 58 57 57 54 52 49 49
9 8 21 28 11 14 8 5 9 18 24 34 26 16 14 13 13 8 4 13 21 28 32 33 31 28 26 27 30 32 36 40 44 46 47 47 48 46 43 41 41 39 37 37
23 19 7 43 21 35 12 11 14 25 29 30 32 28 21 21 19 13 7 11 17 22 27 28 28 29 28 26 25 27 26 29 32 32 32 32 31 33 33 31 30 27 24 26
5 19 40 59 66 65 50 43 33 25 31 36 36 31 27 27 25 18 13 12 14 18 23 25 25 25 25 24 23 21 21 21 20 20 20 19 19 21 22 22 21 20 20 19
12 40 39 62 64 68 63 58 63 48 37 40 38 35 29 29 28 21 17 14 12 13 14 19 21 23 24 24 22 19 18 17 16 17 19 20 21 25 23 23 20 18 16 14
26 56 40 47 51 48 36 39 46 56 50 44 44 38 31 31 29 25 20 16 12 8 8 12 15 17 17 17 17 17 16 17 15 15 15 16 18 19 20 22 21 22 20 16
63 78 67 71 69 54 47 52 41 42 55 52 47 43 37 34 31 28 25 20 13 10 5 6 10 12 13 14 15 15 16 15 13 13 13 14 14 14 14 17 18 17 16 15
70 80 67 79 54 46 38 38 35 33 38 56 47 47 45 40 36 33 25 17 19 15 11 6 1 5 8 9 10 10 11 11 11 11 11 11 11 13 14 15 14 15 15 16
80 81 91 85 62 41 48 53 49 46 40 60 58 54 53 49 43 34 26 28 25 21 18 13 8 4 3 4 4 4 6 5 4 4 4 5 6 7 7 7 8 9 10 9
52 49 58 73 74 56 52 48 45 43 46 60 65 62 59 48 39 35 35 33 30 21 21 20 16 12 9 7 7 6 4 5 6 7 7 6 6 6 6 8 10 11 12 12
61 61 63 59 60 62 69 60 54 45 48 66 68 61 57 53 50 47 43 37 32 30 27 24 22 21 18 16 14 13 13 13 14 13 11 10 10 10 11 12 13 13 13 13
59 60 61 56 35 25 32 48 48 45 52 61 66 60 60 61 58 49 44 42 39 36 32 30 30 29 26 24 24 23 22 22 20 17 16 15 15 16 15 15 15 17 14 16
42 42 47 55 53 40 32 29 44 44 47 56 65 67 64 60 54 48 45 46 44 42 35 35 34 34 35 35 34 32 30 27 26 24 22 21 19 17 17 17 17 16 16 17
29 34 40 46 54 67 67 55 38 52 50 56 59 66 66 63 57 53 51 52 45 40 36 37 38 38 40 43 43 38 34 31 31 29 26 25 23 21 20 19 18 18 19 19
30 26 30 36 38 49 60 54 41 52 56 57 64 65 66 60 57 55 57 57 47 45 41 41 43 41 41 41 41 39 37 35 33 31 29 26 24 22 21 20 20 21 21 22
30 24 27 26 33 42 55 55 40 45 55 57 56 62 61 61 60 61 59 57 47 48 46 45 45 42 39 38 39 40 38 36 34 31 29 26 24 23 22 22 23 24 24 24
28 30 25 23 30 34 55 60 46 47 51 57 52 54 62 63 61 60 61 55 53 52 51 49 42 37 36 38 39 38 36 34 32 30 27 26 24 23 23 23 24 25 25 25
36 35 31 24 28 42 57 63 52 44 46 44 46 51 52 58 62 62 59 56 53 52 50 47 39 36 37 37 36 34 33 32 30 27 24 23 22 22 24 25 25 25 26 27
36 32 31 18 22 30 47 59 56 47 45 49 50 46 48 53 55 53 54 54 53 49 43 40 38 39 36 33 32 30 29 26 25 24 22 21 22 23 25 25 25 25 26 27
27 26 24 18 14 19 34 53 60 49 42 38 40 43 44 43 45 49 50 48 44 38 34 33 33 30 28 26 25 24 22 22 21 19 19 21 22 24 24 22 22 22 24 26
22 22 19 18 12 12 26 41 47 45 41 39 36 34 35 39 40 38 37 34 32 32 30 28 24 22 20 19 18 18 17 17 16 17 19 21 21 20 20 20 21 23 26 28
Wind_Direction_850mb
262 269 267 263 262 230 225 226 211 270 265 279 296 302 298 307 320 330 339 350 353 357 4 9 8 8 7 10 4 357 348 337 330 318 285 254 243 248 252 248 242 255 243 262
282 251 259 272 258 235 230 240 258 261 275 282 279 263 278 290 327 335 335 351 351 357 5 11 12 17 17 20 22 12 5 3 357 337 289 206 200 185 210 215 203 198 207 230
266 340 309 303 244 179 200 188 168 192 235 210 285 259 268 285 328 332 334 351 352 359 6 12 19 22 24 34 43 45 47 47 53 86 113 129 144 159 158 158 148 159 147 154
269 358 310 241 203 175 198 223 216 261 254 220 230 274 278 278 305 331 336 357 0 5 14 13 20 29 37 48 53 60 64 66 67 81 104 119 121 127 132 127 126 135 130 127
211 246 288 293 156 169 175 282 216 227 248 225 253 292 286 264 284 325 341 2 5 9 11 21 25 25 34 51 58 62 67 79 88 97 105 112 109 106 108 113 113 111 111 110
100 190 238 262 170 156 119 294 191 198 210 174 164 340 265 196 226 306 344 6 11 14 12 21 33 36 39 43 53 58 59 68 81 91 96 96 97 97 100 99 99 99 99 100
219 257 280 256 168 154 86 243 187 202 187 169 191 213 235 213 202 236 347 3 11 13 16 19 29 39 43 50 57 58 63 69 76 77 81 85 86 88 92 99 102 104 101 101
184 205 274 159 115 177 218 199 230 208 204 197 212 223 229 223 217 226 314 349 5 9 16 20 24 33 40 49 60 63 66 72 73 76 81 86 91 95 92 94 99 102 101 100
192 209 225 194 222 225 255 248 239 225 221 215 216 224 223 224 225 233 275 325 353 5 13 20 27 28 32 41 50 58 62 68 76 81 85 87 90 93 95 98 102 98 94 93
83 246 241 246 244 249 253 256 255 248 230 221 224 224 219 224 228 237 262 300 334 353 6 16 25 34 40 41 42 49 55 57 63 69 70 72 75 80 86 89 82 80 77 74
264 267 279 269 254 261 270 262 254 247 234 228 224 224 221 222 227 234 250 278 309 334 358 17 29 30 30 34 39 44 51 50 51 58 60 59 63 68 65 67 67 67 61 51
251 260 240 257 269 282 264 259 261 245 230 223 225 225 226 223 225 232 245 257 272 302 342 15 29 34 40 45 49 49 51 55 53 56 57 60 61 57 56 53 44 36 34 32
247 264 267 268 273 271 263 274 261 249 233 228 223 218 222 226 228 230 233 240 245 249 270 359 26 33 34 39 44 46 48 50 46 44 39 37 37 42 37 31 30 24 25 19
258 256 263 260 254 261 262 257 247 255 235 224 227 220 219 223 226 230 233 236 238 239 237 238 322 30 26 28 34 38 41 45 47 40 34 28 26 25 17 13 14 9 4 4
258 257 260 266 262 250 248 249 245 248 238 217 217 218 220 220 223 226 225 232 237 237 236 239 241 254 310 349 5 29 30 23 22 20 20 5 357 349 346 335 332 333 341 348
274 267 263 258 260 249 242 239 240 248 231 211 209 213 217 221 225 224 226 233 238 244 244 243 246 254 264 276 283 284 298 308 315 308 300 302 308 310 315 324 330 338 345 349
261 255 256 256 256 244 237 241 245 248 230 209 208 212 216 219 223 224 228 235 240 244 249 253 254 256 261 269 279 284 283 285 287 284 289 302 315 320 322 326 327 332 334 331
272 271 265 262 263 255 238 229 233 238 218 210 210 212 216 221 226 227 231 236 242 249 252 254 255 254 256 260 263 265 266 268 272 279 286 294 301 306 307 311 313 314 312 308
282 269 258 254 245 248 258 260 241 234 221 213 214 216 220 225 229 231 232 238 243 248 252 256 259 258 255 254 256 259 263 270 279 283 284 283 284 287 292 292 291 291 293 295
291 274 264 253 243 239 242 245 255 226 226 220 217 221 224 227 228 231 234 240 249 257 256 255 257 257 255 251 253 257 262 268 271 272 274 276 279 283 285 287 291 294 294 292
297 292 294 257 240 231 225 226 235 220 220 225 224 224 226 228 230 234 237 241 245 250 252 254 256 256 256 256 256 258 261 263 267 270 274 276 277 280 283 288 292 292 292 293
308 302 311 263 238 223 215 213 222 219 220 225 228 228 230 231 232 236 241 247 250 250 252 254 256 257 259 258 256 256 258 262 266 270 272 273 275 279 284 287 289 289 288 287
318 318 306 280 247 229 213 210 215 218 220 220 225 229 231 235 238 239 242 246 248 249 250 252 254 258 258 256 255 255 258 262 265 268 271 273 275 278 283 288 290 289 288 288
311 315 314 282 252 227 213 211 215 219 219 220 224 229 233 235 237 240 243 244 246 247 248 250 251 253 255 252 252 254 257 262 264 268 269 269 274 281 286 288 289 288 285 285
302 310 316 290 267 243 217 208 213 219 220 220 223 226 229 232 234 238 240 242 243 245 245 243 243 246 246 247 248 251 256 260 263 264 265 272 278 284 289 290 287 283 284 288
303 305 309 298 280 244 211 210 211 215 220 223 228 232 234 237 236 236 236 237 236 235 235 237 236 237 240 243 247 251 255 257 257 260 267 280 290 292 290 285 282 288 294 297
313 307 307 300 280 237 216 202 210 217 221 223 229 231 230 232 231 230 228 228 227 226 223 222 224 228 232 238 245 247 248 252 261 276 287 292 291 286 283 289 295 298 299 299